小惑星A/2019 G2

A/2019 G2

English version
Home page
Updated on August 19, 2019

---------------------------------------------------------------------

・ プロフィール

発見日 2019年4月2日
発見光度 21.3等
発見者 Pan-STARRS 1 telescope (Haleakala)

・ 軌道要素

Epoch 2019 Dec. 23.0 TT = JDT 2458840.5                                         
T 2019 Dec. 10.00809 TT                                 Williams                
q   2.2921408            (2000.0)            P               Q                  
z  +0.0012403      Peri.   82.62411     -0.55056098     +0.81783807             
 +/-0.0000653      Node   208.14571     +0.55452063     +0.50818408             
e   0.9971570      Incl.  159.21393     +0.62401080     +0.26998118             
H   16.5                                                                        
From 53 observations 2019 Apr. 2-July 5, mean residual 0".4.                    

・ 光度変化

        H = 16.5  G = 0.15

---------------------------------------------------------------------

軌道要素はM.P.E.C. 2019-Q05に掲載されたものです。
光度グラフはComet for Windowsで作成したものです。

---------------------------------------------------------------------

Copyright(C) Seiichi Yoshida (comet@aerith.net). All rights reserved.